Simultaneous Nadir Overpasses (SNOs) Predictions

Prediction of SNOs between NOAA-20 and NOAA-19 Satellite Orbit:

Table of predicted SNOs for the next 14.0 days since TLE Epoch: 9/4/2020
Index Date (NOAA-20) Time (NOAA-20) Lat,Lon (NOAA-20) SZA (NOAA-20 ) Date (NOAA-19) Time (NOAA-19) Lat,Lon (NOAA-19) SZA (NOAA-19 ) Distance(km) Time Diff (sec)
1 09/18/2020 08:10:03 78.93, 27.41 78.61 09/18/2020 08:08:53 78.92, 25.49 78.82 40.97 70
2 09/18/2020 09:00:51 -79.04,-166.09 101.21 09/18/2020 08:59:44 -79.07,-166.05 101.16 2.72 67
3 09/18/2020 09:51:36 79.04, 1.25 78.81 09/18/2020 09:50:49 79.07, 1.16 78.86 3.30 47
4 09/18/2020 10:42:21 -79.05, 168.50 101.17 09/18/2020 10:41:45 -79.05, 168.33 101.14 3.67 36
5 09/18/2020 11:33:07 79.08, -24.41 78.90 09/18/2020 11:32:50 79.05, -24.46 78.88 3.74 17
6 09/18/2020 12:23:51 -79.06, 143.09 101.14 09/18/2020 12:23:45 -79.07, 142.97 101.11 3.03 6
7 09/18/2020 13:14:37 79.09, -49.82 78.93 09/18/2020 13:14:50 79.07, -49.83 78.91 2.36 13
8 09/18/2020 14:05:21 -79.06, 117.68 101.10 09/18/2020 14:05:45 -79.09, 117.60 101.08 3.17 24
9 09/18/2020 14:56:07 79.09, -75.24 78.97 09/18/2020 14:56:50 79.08, -75.19 78.94 1.54 43
10 09/18/2020 15:46:52 -79.10, 92.01 101.01 09/18/2020 15:47:46 -79.07, 91.98 101.06 3.58 54
11 09/18/2020 16:37:37 79.10,-100.65 79.00 09/18/2020 16:38:50 79.10,-100.55 78.97 2.08 73
